KD5HIA Weather Reports


Display with metric or nautical units.
time (UTC)temp
F
wind
direction
speed
MPH
gust
MPH
rain 1hr
in
rain 24hr
in
rain mn
in
humidity
%
barometer
mb
20240623145517 83 270 5.0 9.0 0.00 0.00 0.00 61 1018.0
20240623144531 83 248 6.0 14.0 0.00 0.00 0.00 62 1018.1
20240623143517 82 248 5.0 12.0 0.00 0.00 0.00 63 1018.0
20240623142518 81 203 6.0 14.0 0.00 0.00 0.00 65 1018.1
20240623141517 81 225 6.0 11.0 0.00 0.00 0.00 66 1018.1
20240623140517 80 248 5.0 10.0 0.00 0.00 0.00 67 1018.1
20240623135518 79 203 6.0 10.0 0.00 0.00 0.00 68 1018.1
20240623134518 78 248 4.0 9.0 0.00 0.00 0.00 69 1018.0
20240623133516 77 225 4.0 9.0 0.00 0.00 0.00 71 1017.9
20240623132517 76 225 4.0 8.0 0.00 0.00 0.00 73 1017.8
20240623131517 76 203 3.0 10.0 0.00 0.00 0.00 74 1018.0
20240623130517 75 225 3.0 8.0 0.00 0.00 0.00 76 1017.9
20240623125518 73 203 2.0 6.0 0.00 0.00 0.00 78 1017.8
20240623124517 72 225 1.0 3.0 0.00 0.00 0.00 78 1017.7
20240623123517 72 0.0 2.0 0.00 0.00 0.00 78 1017.8
20240623122518 71 0.0 2.0 0.00 0.00 0.00 78 1017.5
20240623121518 71 0.0 2.0 0.00 0.00 0.00 77 1017.6
20240623120517 71 0.0 1.0 0.00 0.00 0.00 77 1017.5
20240623115517 71 0.0 0.0 0.00 0.00 0.00 76 1017.5
20240623114517 72 0.0 1.0 0.00 0.00 0.00 75 1017.4
20240623113517 72 0.0 1.0 0.00 0.00 0.00 75 1017.5
20240623112517 72 225 1.0 2.0 0.00 0.00 0.00 74 1017.4
20240623111517 72 248 1.0 3.0 0.00 0.00 0.00 75 1017.4
20240623110517 72 0.0 2.0 0.00 0.00 0.00 74 1017.2
20240623105517 72 0.0 1.0 0.00 0.00 0.00 73 1017.3
20240623104517 72 0.0 2.0 0.00 0.00 0.00 73 1017.1
20240623103518 73 0.0 3.0 0.00 0.00 0.00 73 1017.0
20240623102518 73 203 1.0 3.0 0.00 0.00 0.00 72 1016.9
20240623101517 73 0.0 1.0 0.00 0.00 0.00 72 1016.9
20240623100516 73 0.0 1.0 0.00 0.00 0.00 71 1016.9
20240623095518 73 0.0 0.0 0.00 0.00 0.00 71 1016.9
20240623094612 73 0.0 0.0 0.00 0.00 0.00 71 1016.7
20240623094017 74 0.0 1.0 0.00 0.00 0.00 71 1016.8
20240623093017 74 0.0 2.0 0.00 0.00 0.00 70 1016.7
20240623092018 74 203 1.0 3.0 0.00 0.00 0.00 70 1016.5
20240623091017 74 203 1.0 3.0 0.00 0.00 0.00 69 1016.6
20240623090018 74 203 1.0 2.0 0.00 0.00 0.00 69 1016.7
20240623085019 74 0.0 1.0 0.00 0.00 0.00 68 1016.8
20240623084017 75 0.0 0.0 0.00 0.00 0.00 67 1016.9
20240623083017 75 0.0 0.0 0.00 0.00 0.00 67 1016.9
20240623082018 75 0.0 2.0 0.00 0.00 0.00 66 1017.0
20240623081018 75 0.0 2.0 0.00 0.00 0.00 66 1016.9
20240623080017 76 0.0 3.0 0.00 0.00 0.00 66 1017.1
20240623075018 76 0.0 3.0 0.00 0.00 0.00 65 1017.1
20240623074017 76 0.0 2.0 0.00 0.00 0.00 65 1017.1
20240623073017 76 203 1.0 5.0 0.00 0.00 0.00 65 1017.2
20240623072018 77 203 3.0 6.0 0.00 0.00 0.00 64 1017.2
20240623071017 77 203 3.0 5.0 0.00 0.00 0.00 64 1017.4
20240623070017 77 203 2.0 5.0 0.00 0.00 0.00 63 1017.4
20240623065018 78 203 3.0 5.0 0.00 0.00 0.00 62 1017.6
20240623064017 78 203 1.0 4.0 0.00 0.00 0.00 61 1017.7
20240623063018 79 203 2.0 5.0 0.00 0.00 0.00 60 1017.8
20240623062018 79 203 4.0 6.0 0.00 0.00 0.00 59 1018.0
20240623061018 80 203 3.0 7.0 0.00 0.00 0.00 58 1018.0
20240623060017 80 203 4.0 7.0 0.00 0.00 0.00 58 1018.1
20240623055017 80 180 4.0 10.0 0.00 0.00 0.00 57 1018.2
20240623054017 81 180 3.0 9.0 0.00 0.00 0.00 57 1018.2
20240623053017 81 180 5.0 9.0 0.00 0.00 0.00 56 1018.1
20240623052017 81 180 3.0 6.0 0.00 0.00 0.00 55 1018.0
20240623051018 81 180 4.0 8.0 0.00 0.00 0.00 54 1017.8
20240623050018 82 180 5.0 7.0 0.00 0.00 0.00 54 1017.7
20240623045017 82 180 5.0 10.0 0.00 0.00 0.00 53 1017.6
20240623044017 83 158 6.0 9.0 0.00 0.00 0.00 52 1017.5
20240623043017 83 158 7.0 12.0 0.00 0.00 0.00 51 1017.4
20240623042016 83 158 7.0 11.0 0.00 0.00 0.00 51 1017.3
20240623041017 84 158 7.0 10.0 0.00 0.00 0.00 50 1017.3
20240623040018 84 158 8.0 13.0 0.00 0.00 0.00 50 1017.1
20240623035017 85 158 7.0 14.0 0.00 0.00 0.00 49 1017.0
20240623034018 85 158 8.0 12.0 0.00 0.00 0.00 48 1016.9
20240623033018 85 158 8.0 14.0 0.00 0.00 0.00 48 1016.6
20240623032018 86 158 8.0 12.0 0.00 0.00 0.00 47 1016.5
20240623031016 86 158 8.0 13.0 0.00 0.00 0.00 47 1016.3
20240623030017 86 158 8.0 15.0 0.00 0.00 0.00 47 1016.1
20240623025018 86 158 8.0 13.0 0.00 0.00 0.00 46 1016.0
20240623024018 87 158 8.0 15.0 0.00 0.00 0.00 45 1015.9
20240623023017 87 158 7.0 12.0 0.00 0.00 0.00 43 1015.6
20240623022018 88 158 6.0 11.0 0.00 0.00 0.00 42 1015.5
20240623021017 88 158 7.0 12.0 0.00 0.00 0.00 41 1015.4
20240623020018 89 135 7.0 12.0 0.00 0.00 0.00 41 1015.3
20240623015018 89 158 9.0 13.0 0.00 0.00 0.00 41 1015.2
20240623014017 90 158 7.0 13.0 0.00 0.00 0.00 41 1015.2
20240623013017 91 158 6.0 10.0 0.00 0.00 0.00 40 1015.2
20240623012018 92 158 7.0 11.0 0.00 0.00 0.00 40 1015.2
20240623011017 92 158 6.0 9.0 0.00 0.00 0.00 39 1015.1
20240623010018 93 180 5.0 10.0 0.00 0.00 0.00 37 1015.0
20240623005018 94 158 4.0 9.0 0.00 0.00 0.00 36 1014.9
20240623004018 94 158 4.0 8.0 0.00 0.00 0.00 35 1014.9
20240623003018 94 180 5.0 11.0 0.00 0.00 0.00 36 1014.9
20240623002017 95 158 6.0 10.0 0.00 0.00 0.00 35 1014.9
20240623001018 95 158 5.0 11.0 0.00 0.00 0.00 33 1014.9
20240623000018 96 203 5.0 10.0 0.00 0.00 0.00 33 1014.9
20240622235018 95 180 2.0 5.0 0.00 0.00 0.00 33 1014.9
20240622234016 97 158 6.0 11.0 0.00 0.00 0.00 32 1015.2
20240622233017 97 158 4.0 10.0 0.00 0.00 0.00 32 1015.1
20240622232018 96 203 4.0 10.0 0.00 0.00 0.00 32 1015.1
20240622231018 96 158 7.0 13.0 0.00 0.00 0.00 33 1015.2
20240622230018 97 158 7.0 13.0 0.00 0.00 0.00 33 1015.4
20240622225018 97 203 4.0 9.0 0.00 0.00 0.00 33 1015.4
20240622224017 98 158 8.0 15.0 0.00 0.00 0.00 33 1015.6
20240622223018 98 135 3.0 7.0 0.00 0.00 0.00 32 1015.7
20240622222018 98 203 6.0 12.0 0.00 0.00 0.00 32 1015.9
20240622221018 98 203 3.0 7.0 0.00 0.00 0.00 33 1016.0
20240622220018 97 158 5.0 11.0 0.00 0.00 0.00 33 1016.1
20240622215018 96 203 5.0 12.0 0.00 0.00 0.00 35 1016.2
20240622214018 97 203 7.0 17.0 0.00 0.00 0.00 32 1016.4
20240622213018 97 225 4.0 9.0 0.00 0.00 0.00 33 1016.5
20240622212016 97 225 6.0 14.0 0.00 0.00 0.00 34 1016.8
20240622211017 97 203 8.0 15.0 0.00 0.00 0.00 35 1016.7
20240622210018 96 158 9.0 17.0 0.00 0.00 0.00 35 1016.8
20240622205018 97 158 7.0 16.0 0.00 0.00 0.00 34 1017.1
20240622204018 96 158 5.0 12.0 0.00 0.00 0.00 34 1017.1
20240622203018 95 180 5.0 11.0 0.00 0.00 0.00 37 1017.2
20240622202018 96 158 4.0 10.0 0.00 0.00 0.00 36 1017.4
20240622201016 96 158 8.0 16.0 0.00 0.00 0.00 37 1017.5
20240622200018 96 180 7.0 12.0 0.00 0.00 0.00 36 1017.7
20240622195018 96 203 7.0 17.0 0.00 0.00 0.00 38 1017.8
20240622194018 95 180 6.0 13.0 0.00 0.00 0.00 37 1018.0
20240622193018 95 203 8.0 13.0 0.00 0.00 0.00 38 1018.0
20240622192018 95 248 4.0 10.0 0.00 0.00 0.00 38 1018.1
20240622191018 95 203 8.0 15.0 0.00 0.00 0.00 37 1018.2
20240622190016 94 158 7.0 15.0 0.00 0.00 0.00 38 1018.3
20240622185016 95 203 7.0 15.0 0.00 0.00 0.00 37 1018.4
20240622184516 95 180 4.0 18.0 0.00 0.00 0.00 38 1018.5
20240622183516 95 158 4.0 9.0 0.00 0.00 0.00 39 1018.6
20240622182516 94 135 4.0 10.0 0.00 0.00 0.00 39 1018.7
20240622181516 93 180 5.0 14.0 0.00 0.00 0.00 40 1018.8
20240622180516 93 158 6.0 12.0 0.00 0.00 0.00 40 1018.9
20240622175516 92 158 5.0 14.0 0.00 0.00 0.00 42 1019.1
20240622174516 92 248 4.0 9.0 0.00 0.00 0.00 42 1019.2
20240622173516 92 158 6.0 12.0 0.00 0.00 0.00 44 1019.4
20240622172516 91 203 2.0 7.0 0.00 0.00 0.00 45 1019.4
20240622171516 90 158 6.0 11.0 0.00 0.00 0.00 45 1019.4
20240622170516 89 270 5.0 12.0 0.00 0.00 0.00 47 1019.3
20240622165516 89 203 4.0 9.0 0.00 0.00 0.00 48 1019.5
20240622164516 89 135 3.0 9.0 0.00 0.00 0.00 49 1019.7
20240622163516 88 203 5.0 10.0 0.00 0.00 0.00 51 1019.7
20240622162516 88 225 3.0 6.0 0.00 0.00 0.00 54 1019.8
20240622161516 86 180 6.0 12.0 0.00 0.00 0.00 54 1019.7
20240622160516 86 158 7.0 11.0 0.00 0.00 0.00 55 1019.9
20240622155516 86 180 5.0 11.0 0.00 0.00 0.00 57 1019.9
20240622154516 85 158 7.0 14.0 0.00 0.00 0.00 57 1020.1
20240622153516 85 158 5.0 10.0 0.00 0.00 0.00 59 1019.9
20240622152516 84 180 7.0 13.0 0.00 0.00 0.00 60 1020.0
20240622151516 83 203 6.0 13.0 0.00 0.00 0.00 62 1020.0
20240622150516 83 180 6.0 13.0 0.00 0.00 0.00 63 1020.3